Location: Baili�vre
(50.0696°N, 4.2409°E)
Time: 07:12:16
(UTC+00:00)

ISS - Visible Passes

Search period start: 29 January 2022 00:00
Search period end: 08 February 2022 00:00
Orbit: 413 x 422 km, 51.6° (Epoch: 29 January)

Date Brightness Start Highest point End Pass type
(mag) Time Alt. Az. Time Alt. Az. Time Alt. Az.
29 Jan -3.8 18:04:49 10° WNW 18:08:10 75° N 18:09:19 38° E visible
29 Jan -0.5 19:41:41 10° W 19:42:15 14° W 19:42:15 14° W visible
30 Jan -3.7 17:16:40 10° WNW 17:20:00 67° N 17:23:17 10° E visible
30 Jan -2.8 18:53:29 10° WNW 18:56:13 47° WSW 18:56:13 47° WSW visible
31 Jan -3.7 18:05:17 10° WNW 18:08:37 74° SSW 18:10:13 28° ESE visible
31 Jan -0.5 19:42:33 10° W 19:43:10 13° WSW 19:43:10 13° WSW visible
01 Feb -3.8 17:17:03 10° WNW 17:20:24 87° NNE 17:23:45 10° ESE visible
01 Feb -2.1 18:54:01 10° W 18:56:55 27° SW 18:57:14 27° SSW visible
02 Feb -2.6 18:05:37 10° W 18:08:47 39° SSW 18:11:24 14° SE visible
03 Feb -3.1 17:17:16 10° WNW 17:20:33 56° SSW 17:23:49 10° SE visible
03 Feb -0.9 18:55:04 10° WSW 18:56:45 13° SW 18:58:26 10° SSW visible
04 Feb -1.2 18:06:06 10° W 18:08:36 20° SW 18:11:06 10° S visible
05 Feb -1.7 17:17:26 10° W 17:20:23 29° SW 17:23:18 10° SSE visible
